+ View the NASA Portal
+ Center for Near-Earth Object Studies
IMPORTANT:
The SSD Announcement email list is now available. Major changes are coming in the near future, including possible hostname and/or URL changes. To be notified of such changes, subscribe to this email list.
Please visit
this page
for more details.
Don't show this message again
JPL Small-Body Database Browser
Search:
[
help
]
233321 (2006 BP194)
Classification:
Main-belt Asteroid
SPK-ID:
2233321
[
Ephemeris
|
Orbit Diagram
|
Orbital Elements
|
Mission Design
|
Physical Parameters
|
Discovery Circumstances
|
Close-Approach Data
]
[ show orbit diagram ]
Orbital Elements at Epoch 2458600.5 (2019-Apr-27.0) TDB
Reference:
JPL 15
(heliocentric ecliptic J2000)
Element
Value
Uncertainty (1-sigma)
Units
e
.2164149134121791
5.0052e-08
a
2.400559964926794
1.6288e-08
au
q
1.881042987976418
1.266e-07
au
i
5.105702372664041
7.1439e-06
deg
node
156.3979155302924
5.9851e-05
deg
peri
262.8862864626975
6.2611e-05
deg
M
257.1344865477515
1.7264e-05
deg
t
p
2458988.681257602532
(2020-May-19.18125760)
6.6612e-05
TDB
period
1358.523843870987
3.72
1.3827e-05
3.786e-08
d
yr
n
.2649935086705681
2.697e-09
deg/d
Q
2.92007694187717
1.9813e-08
au
Orbit Determination Parameters
# obs. used (total)
251
data-arc span
8060 days (22.07 yr)
first obs. used
1997-10-02
last obs. used
2019-10-27
planetary ephem.
DE431
SB-pert. ephem.
SB431-N16
condition code
0
norm. resid. RMS
.55332
source
ORB
producer
Otto Matic
solution date
2019-Nov-08 01:35:25
Additional Information
Earth MOID
= .901144 au
Jupiter MOID
= 2.44137 au
T_jup
= 3.489
[ show covariance matrix ]
[
Ephemeris
|
Orbit Diagram
|
Orbital Elements
|
Mission Design
|
Physical Parameters
|
Discovery Circumstances
|
Close-Approach Data
]
Physical Parameter Table
Parameter
Symbol
Value
Units
Sigma
Reference
Notes
absolute magnitude
H
16.9
n/a
MPO450069
diameter
diameter
2.720
km
0.640
urn:nasa:pds:neowise_diameters_albedos::2.0[mainbelt] (http://adsabs.harvard.edu/abs/2011ApJ...741...68M)
geometric albedo
albedo
0.041
0.013
urn:nasa:pds:neowise_diameters_albedos::2.0[mainbelt] (http://adsabs.harvard.edu/abs/2011ApJ...741...68M)
233321 (2006 BP194)
Discovered 2006-Jan-30 by Spacewatch at Kitt Peak
Reference:
20100228/Numbers.arc
Last Updated:
2010-03-03
[ show close-approach data ]
[
Ephemeris
|
Orbit Diagram
|
Orbital Elements
|
Mission Design
|
Physical Parameters
|
Discovery Circumstances
|
Close-Approach Data
]
2019-Dec-11 00:56 UT
(server date/time)
Site Manager:
Ryan S. Park
Webmaster
:
Alan B. Chamberlin